TimeCDT,TemperatureF,Dew PointF,Humidity,Sea Level PressureIn,VisibilityMPH,Wind Direction,Wind SpeedMPH,Gust SpeedMPH,PrecipitationIn,Events,Conditions,WindDirDegrees,DateUTC
12:53 AM,-9999,-9999,N/A,30.08,-9999.0,North,-9999.0,-,N/A,,Unknown,0,2013-10-10 05:53:00
1:53 AM,-9999,-9999,N/A,30.09,-9999.0,North,-9999.0,-,N/A,,Unknown,0,2013-10-10 06:53:00
2:53 AM,-9999,-9999,N/A,30.09,-9999.0,North,-9999.0,-,N/A,,Unknown,0,2013-10-10 07:53:00
3:53 AM,-9999,-9999,N/A,30.09,-9999.0,North,-9999.0,-,N/A,,Unknown,0,2013-10-10 08:53:00
4:53 AM,-9999,-9999,N/A,30.09,-9999.0,North,-9999.0,-,N/A,,Unknown,0,2013-10-10 09:53:00
5:53 AM,-9999,-9999,N/A,30.10,-9999.0,North,-9999.0,-,N/A,,Unknown,0,2013-10-10 10:53:00
6:53 AM,-9999,-9999,N/A,30.10,-9999.0,North,-9999.0,-,N/A,,Unknown,0,2013-10-10 11:53:00
7:53 AM,-9999,-9999,N/A,30.12,-9999.0,North,-9999.0,-,N/A,,Unknown,0,2013-10-10 12:53:00
8:53 AM,-9999,-9999,N/A,30.13,-9999.0,North,-9999.0,-,N/A,,Unknown,0,2013-10-10 13:53:00
9:53 AM,-9999,-9999,N/A,30.15,-9999.0,North,-9999.0,-,N/A,,Unknown,0,2013-10-10 14:53:00
10:53 AM,-9999,-9999,N/A,30.15,-9999.0,North,-9999.0,-,N/A,,Unknown,0,2013-10-10 15:53:00
11:53 AM,-9999,-9999,N/A,30.14,-9999.0,North,-9999.0,-,N/A,,Unknown,0,2013-10-10 16:53:00
12:53 PM,-9999,-9999,N/A,30.11,-9999.0,North,-9999.0,-,N/A,,Unknown,0,2013-10-10 17:53:00
1:53 PM,-9999,-9999,N/A,30.08,-9999.0,North,-9999.0,-,N/A,,Unknown,0,2013-10-10 18:53:00
2:53 PM,-9999,-9999,N/A,30.05,-9999.0,North,-9999.0,-,N/A,,Unknown,0,2013-10-10 19:53:00
3:53 PM,-9999,-9999,N/A,30.04,-9999.0,North,-9999.0,-,N/A,,Unknown,0,2013-10-10 20:53:00
4:53 PM,-9999,-9999,N/A,30.02,-9999.0,North,-9999.0,-,N/A,,Unknown,0,2013-10-10 21:53:00
5:53 PM,-9999,-9999,N/A,30.02,-9999.0,North,-9999.0,-,N/A,,Unknown,0,2013-10-10 22:53:00
6:53 PM,-9999,-9999,N/A,30.01,-9999.0,North,-9999.0,-,N/A,,Unknown,0,2013-10-10 23:53:00
7:53 PM,-9999,-9999,N/A,30.01,-9999.0,North,-9999.0,-,N/A,,Unknown,0,2013-10-11 00:53:00
8:53 PM,-9999,-9999,N/A,30.02,-9999.0,North,-9999.0,-,N/A,,Unknown,0,2013-10-11 01:53:00
9:53 PM,-9999,-9999,N/A,30.01,-9999.0,North,-9999.0,-,N/A,,Unknown,0,2013-10-11 02:53:00
10:53 PM,-9999,-9999,N/A,30.01,-9999.0,North,-9999.0,-,N/A,,Unknown,0,2013-10-11 03:53:00
11:53 PM,-9999,-9999,N/A,30.00,-9999.0,North,-9999.0,-,N/A,,Unknown,0,2013-10-11 04:53:00